FW1981 Weather Reports


time (UTC)temp
F
wind
direction
speed
knots
gust
knots
rain 1hr
in
rain 24hr
in
rain mn
in
humidity
%
barometer
mb
20260508142524 52 259 1.7 7.0 0.00 1.38 0.00 79 1003.5
20260508142020 52 245 1.7 7.0 0.00 1.38 0.00 80 1003.4
20260508141534 51 243 0.9 7.0 0.00 1.38 0.00 80 1003.4
20260508141013 52 113 3.5 8.7 0.00 1.38 0.00 80 1003.4
20260508140523 52 245 2.6 8.7 0.00 1.38 0.00 78 1003.3
20260508140020 52 245 1.7 5.2 0.00 1.38 0.00 80 1003.3
20260508135513 51 160 1.7 4.3 0.00 1.49 0.00 83 1003.2
20260508135020 50 113 1.7 4.3 0.00 1.49 0.00 83 1003.2
20260508134532 50 136 1.7 3.5 0.00 1.49 0.00 84 1003.2
20260508134014 49 105 1.7 4.3 0.00 1.49 0.00 85 1003.2
20260508133520 49 105 3.5 4.3 0.00 1.49 0.00 82 1003.1
20260508133020 49 129 2.6 7.0 0.00 1.49 0.00 84 1003.1
20260508132513 49 114 4.3 7.0 0.00 1.49 0.00 82 1003.2
20260508132021 50 129 4.3 6.1 0.00 1.49 0.00 81 1003.2
20260508131520 52 127 3.5 6.1 0.00 1.49 0.00 80 1003.2
20260508131013 52 116 3.5 6.1 0.00 1.49 0.00 80 1003.2
20260508130521 53 89 2.6 4.3 0.00 1.49 0.00 81 1003.2
20260508130019 53 129 2.6 3.5 0.00 1.49 0.00 80 1003.2
20260508125514 52 146 1.7 2.6 0.00 1.56 0.00 81 1003.2
20260508125021 52 108 0.9 2.6 0.00 1.56 0.00 81 1003.1
20260508124519 52 134 1.7 2.6 0.00 1.56 0.00 81 1003.1
20260508124024 51 110 0.9 1.7 0.00 1.56 0.00 82 1003.2
20260508123531 51 115 0.9 3.5 0.00 1.56 0.00 82 1003.2
20260508123020 50 145 1.7 2.6 0.00 1.56 0.00 83 1003.3
20260508122513 50 52 1.7 2.6 0.00 1.56 0.00 81 1003.2
20260508122021 51 81 0.0 2.6 0.00 1.56 0.00 84 1003.2
20260508121520 49 120 0.9 3.5 0.00 1.56 0.00 83 1003.3
20260508121013 49 117 1.7 3.5 0.00 1.56 0.00 83 1003.4
20260508120520 49 101 2.6 3.5 0.00 1.56 0.00 83 1003.3
20260508120020 48 126 1.7 3.5 0.00 1.56 0.00 83 1003.3
20260508115513 49 105 1.7 3.5 0.00 1.58 0.00 83 1003.4
20260508115020 49 112 2.6 4.3 0.00 1.58 0.00 82 1003.4
20260508114520 48 109 1.7 5.2 0.00 1.58 0.00 83 1003.4
20260508114013 49 131 2.6 3.5 0.00 1.58 0.00 81 1003.4
20260508113532 49 65 0.9 1.7 0.00 1.58 0.00 82 1003.3
20260508113020 48 120 0.9 4.3 0.00 1.58 0.00 84 1003.4
20260508112524 47 110 2.6 4.3 0.00 1.58 0.00 83 1003.4
20260508112020 47 119 2.6 4.3 0.00 1.58 0.00 83 1003.5
20260508111520 48 106 2.6 4.3 0.00 1.58 0.00 83 1003.5
20260508111013 49 59 1.7 3.5 0.00 1.58 0.00 84 1003.6
20260508110521 49 81 1.7 5.2 0.00 1.58 0.00 83 1003.5
20260508110020 48 61 1.7 5.2 0.00 1.58 0.00 84 1003.5
20260508105513 48 11 1.7 6.1 0.00 1.59 0.00 85 1003.4
20260508105020 47 72 3.5 6.1 0.00 1.59 0.00 85 1003.5
20260508104521 47 80 1.7 3.5 0.00 1.59 0.00 86 1003.3
20260508104014 47 32 1.7 4.3 0.00 1.59 0.00 87 1003.1
20260508103521 46 71 1.7 4.3 0.00 1.59 0.00 86 1003.0
20260508103020 47 131 1.7 2.6 0.00 1.59 0.00 87 1002.9
20260508102513 46 110 0.9 1.7 0.00 1.59 0.00 87 1002.9
20260508102031 45 21 0.9 2.6 0.00 1.59 0.00 87 1002.9
20260508101523 45 77 1.7 2.6 0.00 1.59 0.00 88 1003.0
20260508101013 45 110 1.7 2.6 0.00 1.59 0.00 88 1003.0
20260508100521 44 46 0.0 0.9 0.00 1.59 0.00 90 1002.9
20260508100019 44 46 0.0 2.6 0.00 1.59 0.00 89 1002.8
20260508095513 44 347 0.0 2.6 0.00 1.63 0.00 89 1002.6
20260508095020 44 341 1.7 3.5 0.00 1.63 0.00 89 1002.4
20260508094520 44 16 1.7 3.5 0.00 1.63 0.00 90 1002.4
20260508094024 44 307 2.6 3.5 0.00 1.63 0.00 90 1002.6
20260508093521 44 302 1.7 2.6 0.00 1.63 0.00 90 1002.7
20260508093021 44 311 0.0 3.5 0.00 1.63 0.00 89 1002.5
20260508092513 44 46 0.9 3.5 0.00 1.63 0.00 89 1002.7
20260508092022 44 328 1.7 3.5 0.00 1.63 0.00 89 1002.7
20260508091520 44 309 1.7 2.6 0.00 1.63 0.00 90 1002.9
20260508091024 44 276 0.9 2.6 0.00 1.63 0.00 89 1002.8
20260508090520 44 125 1.7 3.5 0.00 1.63 0.00 89 1002.8
20260508090020 44 86 1.7 7.8 0.00 1.63 0.00 88 1002.7
20260508085519 44 17 2.6 8.7 0.00 1.64 0.00 88 1002.5
20260508085021 44 305 5.2 8.7 0.00 1.64 0.00 89 1002.4
20260508084520 44 308 5.2 8.7 0.00 1.64 0.00 89 1002.2
20260508084014 44 310 4.3 10.4 0.00 1.64 0.00 89 1002.2
20260508083532 44 310 5.2 11.3 0.00 1.64 0.00 88 1002.2
20260508083021 44 309 7.0 11.3 0.00 1.64 0.00 89 1002.4
20260508082513 44 305 5.2 9.6 0.00 1.64 0.00 89 1002.7
20260508082032 44 305 5.2 9.6 0.00 1.64 0.00 89 1002.4
20260508081519 44 335 5.2 9.6 0.00 1.64 0.00 89 1002.2
20260508081014 45 1 5.2 8.7 0.00 1.64 0.00 89 1002.7
20260508080521 44 308 4.3 7.0 0.00 1.64 0.00 89 1002.7
20260508080020 44 302 3.5 7.8 0.00 1.64 0.00 89 1002.7
20260508075513 44 331 4.3 7.8 0.00 1.64 0.00 89 1002.3
20260508075021 44 322 3.5 8.7 0.00 1.64 0.00 89 1002.7
20260508074524 44 23 4.3 8.7 0.00 1.64 0.00 89 1002.4
20260508074014 44 330 3.5 7.0 0.00 1.64 0.00 89 1002.4
20260508073533 44 331 3.5 6.1 0.00 1.64 0.00 89 1002.6
20260508073020 44 316 3.5 7.0 0.00 1.64 0.00 90 1002.8
20260508072514 44 349 3.5 7.8 0.00 1.64 0.00 90 1002.8
20260508072021 44 303 3.5 7.8 0.00 1.64 0.00 91 1002.7
20260508071519 44 297 3.5 6.1 0.00 1.64 0.00 90 1002.6
20260508071014 44 317 3.5 7.8 0.00 1.64 0.00 90 1002.3
20260508070522 45 308 4.3 7.8 0.00 1.64 0.00 90 1002.1
20260508070020 45 306 4.3 7.0 0.00 1.64 0.00 90 1002.3
20260508065525 45 284 3.5 6.1 0.00 1.64 0.00 90 1002.4
20260508065032 45 293 3.5 7.0 0.00 1.64 0.00 90 1002.4
20260508064521 45 323 4.3 7.0 0.00 1.64 0.00 90 1002.4
20260508064014 45 344 4.3 7.0 0.00 1.64 0.00 90 1002.4
20260508063521 45 332 4.3 7.0 0.00 1.64 0.00 91 1002.5
20260508063018 45 347 3.5 6.1 0.00 1.64 0.00 91 1002.6
20260508062514 45 339 3.5 6.1 0.00 1.64 0.00 91 1002.6
20260508062021 45 311 2.6 7.8 0.00 1.64 0.00 91 1002.6
20260508061519 45 298 3.5 7.8 0.00 1.64 0.00 91 1002.6
20260508061014 45 314 2.6 7.0 0.00 1.64 0.00 92 1002.8
20260508060521 45 319 3.5 6.1 0.00 1.64 0.00 92 1002.7
20260508060029 44 318 3.5 6.1 0.00 1.64 0.00 92 1002.8
20260508055514 44 316 2.6 4.3 0.00 1.64 0.00 92 1002.7
20260508055032 45 300 1.7 5.2 0.00 1.64 0.00 92 1002.9
20260508054520 45 326 3.5 5.2 0.00 1.64 0.00 92 1002.8
20260508054014 45 326 2.6 6.1 0.00 1.64 0.00 92 1002.9
20260508053521 45 341 2.6 6.1 0.00 1.64 0.00 92 1002.9
20260508053019 45 335 2.6 6.1 0.00 1.64 0.00 92 1002.8
20260508052514 45 327 3.5 7.0 0.00 1.64 0.00 92 1002.8
20260508052033 45 309 4.3 7.0 0.00 1.64 0.00 92 1002.8
20260508051519 45 311 3.5 6.1 0.00 1.64 0.00 92 1003.2
20260508051014 45 298 3.5 6.1 0.00 1.64 0.00 92 1003.0
20260508050533 45 319 2.6 6.1 0.00 1.64 0.00 92 1003.1
20260508050029 45 306 2.6 5.2 0.00 1.64 0.00 92 1003.1
20260508045515 45 309 2.6 5.2 0.00 1.64 0.00 92 1003.2
20260508045023 46 307 2.6 5.2 0.00 1.64 0.00 92 1003.1
20260508044523 46 282 2.6 5.2 0.00 1.64 0.00 93 1003.4
20260508044014 46 345 2.6 5.2 0.00 1.64 0.00 93 1003.2
20260508043533 46 316 2.6 6.1 0.00 1.64 0.00 93 1003.4
20260508043029 46 319 2.6 6.1 0.00 1.64 0.00 93 1003.4
20260508042514 46 287 1.7 6.1 0.00 1.64 0.00 94 1003.5
20260508042021 46 331 2.6 6.1 0.00 1.64 0.00 94 1003.4
20260508041519 46 311 2.6 6.1 0.00 1.64 0.00 94 1003.3
20260508041014 46 340 2.6 6.1 0.00 1.64 0.00 95 1003.3
20260508040526 46 304 2.6 5.2 0.00 1.64 0.00 95 1003.2
20260508040019 46 323 1.7 3.5 0.00 1.64 0.00 95 1003.1
20260508035514 46 319 1.7 3.5 0.00 1.64 0.00 95 1003.2
20260508035021 46 314 1.7 4.3 0.00 1.64 0.00 95 1003.2
20260508034529 46 328 1.7 4.3 0.00 1.64 0.00 95 1003.3
20260508034019 46 309 2.6 5.2 0.00 1.64 0.00 95 1003.3
20260508033521 46 315 2.6 5.2 0.00 1.64 0.00 95 1003.4
20260508033019 46 323 2.6 4.3 0.00 1.64 0.00 95 1003.5
20260508032525 46 292 1.7 4.3 0.00 1.64 0.00 95 1003.6
20260508032021 45 311 1.7 4.3 0.00 1.64 0.00 95 1003.5
20260508031519 44 290 0.9 2.6 0.00 1.64 0.00 95 1003.6
20260508031014 44 266 0.9 0.9 0.00 1.64 0.00 95 1003.6
20260508030522 44 264 0.9 1.7 0.00 1.64 0.00 95 1003.5
20260508030030 44 278 0.9 1.7 0.00 1.64 0.00 95 1003.5
20260508025514 44 278 0.9 1.7 0.00 1.64 1.64 95 1003.6
20260508025021 44 269 0.9 1.7 0.00 1.64 1.64 95 1003.6
20260508024518 44 274 0.0 0.9 0.00 1.64 1.64 95 1003.4
20260508024025 44 274 0.0 0.9 0.00 1.64 1.64 95 1003.7
20260508023522 44 274 0.9 0.9 0.00 1.64 1.64 95 1003.6
20260508023018 44 274 0.0 0.9 0.00 1.64 1.64 95 1003.6
20260508022514 44 274 0.0 0.9 0.00 1.64 1.64 95 1003.6
20260508022021 44 274 0.9 1.7 0.00 1.64 1.64 95 1003.5
20260508021524 43 274 0.9 0.9 0.00 1.64 1.64 95 1003.3
20260508021014 44 273 0.9 1.7 0.00 1.64 1.64 95 1003.4
20260508020521 44 275 0.9 1.7 0.00 1.64 1.64 95 1003.5
20260508020029 44 275 0.9 1.7 0.00 1.64 1.64 95 1003.5
20260508015515 44 276 0.9 1.7 0.00 1.64 1.64 95 1003.4
20260508015021 43 276 0.9 1.7 0.00 1.64 1.64 95 1003.5
20260508014518 43 271 0.9 1.7 0.00 1.64 1.64 95 1003.5
20260508014014 44 274 0.9 1.7 0.00 1.64 1.64 95 1003.6
20260508013522 44 266 0.9 1.7 0.00 1.64 1.64 95 1003.7
20260508013018 44 264 0.9 1.7 0.00 1.64 1.64 95 1003.7
20260508012514 44 276 0.9 0.9 0.00 1.64 1.64 95 1003.7
20260508012021 44 269 0.0 0.9 0.00 1.64 1.64 95 1003.7
20260508011519 44 269 0.0 0.9 0.00 1.64 1.64 95 1003.6
20260508011026 44 264 0.0 0.9 0.00 1.64 1.64 95 1003.8
20260508010522 44 263 0.9 0.9 0.00 1.64 1.64 95 1003.9
20260508010018 44 250 0.0 0.9 0.00 1.64 1.64 95 1003.9
20260508005514 44 243 0.9 0.9 0.00 1.64 1.64 95 1003.7
20260508005021 44 233 0.9 0.9 0.00 1.64 1.64 95 1003.8
20260508004518 44 233 0.0 0.9 0.00 1.64 1.64 95 1003.9
20260508004015 44 233 0.0 2.6 0.00 1.64 1.64 95 1003.8
20260508002025 43 224 0.9 1.7 0.00 1.64 1.64 95 1003.4
20260508001022 43 328 0.0 0.0 0.00 1.64 1.64 95 1003.3
20260508000520 43 328 0.0 0.0 0.00 1.64 1.64 95 1003.0
20260508000025 43 328 0.0 0.9 0.00 1.64 1.64 95 1003.0
20260507235523 43 328 0.0 0.9 0.00 1.64 1.64 95 1003.1
20260507235022 43 328 0.0 0.0 0.00 1.64 1.64 95 1003.0
20260507234518 43 329 0.0 0.9 0.00 1.64 1.64 95 1002.9
20260507234015 43 329 0.0 0.9 0.00 1.64 1.64 95 1002.9
20260507230522 43 261 0.9 2.6 0.00 1.64 1.64 94 1002.9
20260507230019 43 282 0.9 2.6 0.00 1.64 1.64 94 1002.8
20260507225515 43 290 0.0 3.5 0.00 1.64 1.64 94 1002.9
20260507225034 43 212 1.7 3.5 0.00 1.64 1.64 94 1003.0
20260507224521 43 231 0.0 4.3 0.00 1.64 1.64 94 1003.0
20260507224015 43 271 0.9 4.3 0.00 1.64 1.64 94 1003.1
20260507223524 43 226 0.9 4.3 0.00 1.64 1.64 94 1003.0
20260507223019 44 236 1.7 4.3 0.00 1.64 1.64 94 1003.0
20260507222515 44 263 0.9 5.2 0.00 1.64 1.64 94 1002.9
20260507221526 44 252 1.7 5.2 0.00 1.64 1.64 94 1003.0
20260507221023 44 205 1.7 7.0 0.00 1.64 1.64 94 1003.2
20260507220528 44 296 1.7 4.3 0.00 1.64 1.64 94 1002.9
20260507220019 44 285 1.7 5.2 0.00 1.64 1.64 94 1003.0
20260507215516 44 245 0.9 5.2 0.00 1.64 1.64 94 1003.1
20260507214535 44 251 0.9 5.2 0.00 1.64 1.64 95 1003.0
20260507214022 44 156 1.7 5.2 0.00 1.64 1.64 94 1003.0
20260507213519 44 228 2.6 5.2 0.00 1.64 1.64 94 1003.0
20260507213027 44 286 1.7 4.3 0.00 1.64 1.64 94 1003.1
20260507210526 44 269 0.9 6.1 0.00 1.64 1.64 94 1003.4
20260507205523 44 250 1.7 5.2 0.00 1.64 1.64 94 1003.4
20260507205020 44 233 0.9 5.2 0.00 1.64 1.64 94 1003.3
20260507204515 44 292 1.7 5.2 0.00 1.64 1.64 94 1003.1
20260507204033 44 245 1.7 5.2 0.00 1.64 1.64 94 1003.1
20260507203520 45 249 1.7 6.1 0.00 1.64 1.64 94 1003.2
20260507203027 45 110 1.7 7.0 0.00 1.64 1.64 94 1003.2
20260507201517 45 297 1.7 10.4 0.00 1.64 1.64 94 1003.4
20260507201035 45 250 3.5 10.4 0.00 1.64 1.64 94 1003.5
20260507200522 45 217 2.6 7.0 0.00 1.64 1.64 94 1003.6
20260507200015 45 248 2.6 7.0 0.00 1.64 1.64 94 1003.7
20260507193515 46 142 2.6 10.4 0.02 1.64 1.64 94 1003.4
20260507192526 46 223 3.5 9.6 0.03 1.64 1.64 94 1003.6
20260507191519 47 282 0.9 7.8 0.04 1.64 1.64 94 1003.3
20260507191016 47 239 2.6 9.6 0.04 1.64 1.64 95 1003.3
20260507190015 47 127 1.7 7.8 0.04 1.63 1.63 94 1002.2
20260507184019 48 98 5.2 8.7 0.13 1.62 1.62 94 1002.1
20260507183543 48 191 4.3 7.8 0.15 1.62 1.62 95 1003.1
20260507180524 48 269 1.7 4.3 0.27 1.59 1.59 95 1004.6
20260507180030 48 231 1.7 5.2 0.28 1.58 1.58 95 1004.7
20260507175515 48 234 2.6 6.1 0.29 1.57 1.57 95 1004.3
20260507174515 48 248 1.7 4.3 0.28 1.52 1.52 95 1005.5
20260507171020 48 231 1.7 4.3 0.41 1.34 1.34 94 1005.7
20260507170516 48 243 1.7 4.3 0.53 1.31 1.31 95 1005.5
20260507165518 48 251 1.7 5.2 0.73 1.28 1.28 95 1005.2
20260507165016 48 229 2.6 5.2 0.79 1.26 1.26 95 1005.3
20260507164522 48 230 1.7 5.2 0.82 1.24 1.24 95 1005.3
20260507164022 48 231 2.6 5.2 0.81 1.22 1.22 95 1005.6
20260507163518 47 297 1.7 3.5 0.77 1.17 1.17 94 1006.0
20260507163015 47 157 1.7 5.2 0.76 1.16 1.16 94 1006.1
20260507162524 47 321 0.9 8.7 0.75 1.15 1.15 94 1006.1
20260507162023 47 347 1.7 8.7 0.72 1.11 1.11 94 1006.3
20260507161519 48 314 2.6 8.7 0.64 1.02 1.02 95 1006.1
20260507161016 47 283 1.7 7.8 0.54 0.91 0.91 94 1005.8
20260507160021 48 266 2.6 8.7 0.32 0.66 0.66 94 1005.6
20260507153534 49 152 4.3 10.4 0.10 0.40 0.40 94 1005.2
20260507153019 49 258 5.2 10.4 0.11 0.40 0.40 94 1005.3
20260507152515 49 219 5.2 13.0 0.11 0.40 0.40 94 1005.5
20260507151515 49 169 5.2 15.6 0.10 0.38 0.38 94 1005.8
20260507151023 49 238 6.1 15.6 0.10 0.37 0.37 95 1005.9
20260507150520 49 143 5.2 13.0 0.09 0.35 0.35 95 1006.1
20260507150026 48 179 4.3 13.0 0.08 0.34 0.34 95 1006.3
20260507145523 48 30 4.3 12.2 0.07 0.33 0.33 95 1006.2
20260507145020 48 192 5.2 13.0 0.07 0.32 0.32 94 1006.3
20260507144516 48 148 6.1 13.9 0.09 0.32 0.32 94 1006.4
20260507144023 47 167 5.2 16.5 0.09 0.31 0.31 94 1006.4
20260507143522 47 190 6.1 16.5 0.10 0.30 0.30 94 1006.5
20260507143019 48 179 4.3 11.3 0.11 0.29 0.29 94 1006.7